Temp
18 18 17 17 18 18 20 20 20 22 23 23 22 22 21 18 20 17 17 18 18 18 18 18 19 19 19 19 19 19 19 19 19 18 18 18 18 18 18 18 18 18 18 18 17 18 18 18 18
18 17 17 17 19 19 20 20 20 21 21 23 22 21 19 17 16 16 17 18 18 18 19 18 18 19 19 19 19 19 19 19 19 19 18 18 18 18 18 18 17 18 18 18 17 17 18 17 18
18 17 17 18 19 20 20 20 21 23 22 23 20 19 18 16 15 16 18 18 18 18 18 18 18 19 19 19 19 19 19 19 19 19 19 19 18 18 18 18 18 18 18 18 17 18 17 17 16
17 17 18 19 20 19 20 21 22 24 22 21 19 17 17 16 16 17 18 18 18 18 18 18 18 19 19 19 19 19 19 18 18 18 18 19 18 18 18 18 18 18 18 18 18 18 17 17 17
17 18 19 19 20 20 21 20 22 22 21 20 20 17 15 15 17 17 17 18 18 18 18 19 19 19 19 19 19 19 18 18 18 17 17 18 17 18 18 18 19 18 18 18 18 17 18 17 17
18 18 19 19 20 21 22 21 21 22 20 18 17 17 16 16 17 17 17 18 18 19 19 19 19 19 19 19 19 19 18 18 18 17 17 18 18 18 18 19 19 19 19 19 18 17 17 17 17
18 18 20 20 21 21 23 22 21 21 21 20 18 17 16 16 16 17 17 18 18 18 19 19 19 19 19 19 19 19 18 19 18 18 18 18 18 18 18 18 18 18 18 18 18 18 17 17 17
19 19 20 20 21 22 24 22 22 22 22 20 19 16 15 16 16 17 17 17 18 18 19 19 19 19 19 19 19 19 19 19 19 19 19 19 19 19 18 18 18 18 18 18 18 18 17 17 17
20 19 18 21 21 23 24 22 23 21 20 21 20 19 17 17 16 17 17 17 17 18 19 19 19 19 19 20 19 19 19 19 19 19 19 19 19 18 18 18 18 18 18 18 18 18 18 18 17
19 18 20 23 24 24 24 24 22 21 21 19 18 18 17 16 16 17 17 17 17 18 18 19 19 20 20 20 20 19 19 19 19 19 19 18 18 18 18 18 18 18 18 18 18 18 18 18 18
20 18 21 23 25 25 24 24 23 21 20 19 17 16 17 16 17 17 17 18 18 19 19 20 20 20 20 20 20 19 19 19 19 18 19 19 19 19 19 19 19 19 19 18 19 18 18 18 18
19 21 22 23 25 25 25 25 23 22 22 21 20 18 17 17 17 17 18 18 18 19 19 20 20 20 20 20 20 19 19 19 19 19 19 19 19 18 18 19 19 19 19 18 19 19 18 18 19
20 21 23 24 25 25 26 26 24 22 22 20 18 17 17 17 17 17 18 18 19 19 20 20 20 20 20 20 20 20 19 20 19 19 19 19 19 19 18 19 19 19 19 18 19 19 19 18 19
22 23 23 24 26 26 26 24 24 21 20 18 18 17 17 17 18 17 18 18 19 20 20 20 21 21 20 20 20 20 20 19 19 19 19 19 19 19 19 19 19 19 19 19 19 18 18 19 19
23 22 23 25 26 25 25 22 21 20 19 18 18 18 17 17 17 18 19 19 20 20 20 21 21 21 20 20 20 19 20 19 20 20 19 19 19 19 19 19 19 19 19 19 19 18 18 19 19
22 21 20 23 26 26 25 21 20 19 19 18 18 18 18 18 18 18 19 19 19 20 20 21 21 21 20 20 19 19 19 20 20 20 19 19 19 19 20 19 19 19 19 19 19 19 18 19 19
19 19 21 24 25 25 25 21 20 19 19 19 19 18 18 18 18 18 18 19 20 20 20 20 21 20 20 20 20 19 20 20 20 20 19 19 19 19 20 19 19 19 19 19 19 19 19 19 19
18 20 21 22 24 24 24 21 20 19 19 19 19 19 19 18 18 19 19 19 20 20 20 20 20 21 20 20 20 19 19 20 20 20 20 20 20 20 20 20 19 19 19 19 19 19 19 19 20
21 22 22 24 25 24 24 22 20 19 20 19 19 19 19 19 19 19 19 19 20 20 20 20 20 20 20 20 20 20 19 20 20 20 20 20 20 20 20 20 20 19 19 19 19 19 19 19 20
20 20 21 23 25 24 24 23 21 20 20 20 20 19 19 19 19 19 19 19 19 20 20 20 20 20 20 20 20 20 20 20 20 20 20 20 20 20 19 19 19 19 19 19 19 18 19 19 19
19 20 21 22 24 25 23 22 22 21 21 21 20 20 19 19 19 19 20 20 20 20 20 20 20 20 20 20 20 20 20 20 20 20 20 20 20 20 19 19 19 19 19 19 19 19 19 19 19
18 22 23 23 24 24 23 19 19 22 21 21 21 21 20 20 20 20 20 20 20 20 20 20 20 21 21 21 20 20 20 20 20 20 20 20 20 20 19 19 19 19 19 19 19 18 19 19 20
21 23 23 23 23 22 23 20 20 21 21 20 21 22 21 20 20 21 20 21 21 20 21 21 21 21 21 21 20 21 21 21 21 20 20 20 19 20 20 19 19 19 19 19 19 19 19 19 20
24 23 22 22 22 22 22 22 21 20 21 22 22 22 22 21 21 21 23 22 22 21 21 21 21 21 21 21 21 21 21 21 21 21 20 20 20 20 20 20 19 19 19 19 19 19 19 19 19
22 19 18 18 19 21 20 21 25 22 24 24 23 23 22 22 22 21 21 21 22 22 21 22 21 21 21 21 21 21 21 21 21 21 21 20 20 20 20 20 19 19 19 19 19 19 19 19 19
21 21 17 18 17 21 20 20 23 25 25 25 25 24 24 23 22 22 23 22 22 23 21 22 22 22 22 22 21 21 21 21 21 21 21 21 20 20 20 20 20 20 19 19 19 19 19 19 19
21 20 21 19 18 18 20 21 23 25 23 24 24 25 25 23 23 23 23 23 23 22 22 23 23 22 22 22 22 22 22 22 22 22 21 21 21 20 20 20 20 20 20 20 19 19 19 19 19
22 20 21 16 20 19 19 21 24 23 23 23 23 25 25 25 24 23 24 24 24 23 23 23 24 24 23 23 22 22 22 22 22 22 22 21 21 21 20 20 20 20 20 20 20 20 19 19 20
20 21 20 20 18 21 18 21 20 23 24 23 24 25 25 25 24 24 25 24 24 23 22 23 23 24 23 23 23 22 22 22 22 22 22 22 22 21 20 21 21 21 21 20 20 20 20 20 20
14 16 20 20 19 17 18 23 25 24 23 23 24 27 29 27 25 25 25 24 24 23 23 23 23 23 23 24 23 23 23 23 22 22 22 22 22 22 21 21 21 21 21 21 21 20 20 20 20
Height
1504 1506 1507 1508 1514 1510 1506 1502 1496 1491 1492 1493 1497 1500 1506 1511 1511 1524 1518 1525 1530 1534 1537 1541 1545 1547 1549 1551 1553 1553 1554 1555 1556 1556 1558 1558 1558 1559 1560 1561 1562 1562 1563 1563 1564 1564 1564 1563 1563
1504 1506 1508 1507 1512 1518 1507 1498 1496 1490 1493 1494 1501 1504 1508 1513 1512 1512 1520 1527 1532 1536 1539 1542 1546 1548 1550 1552 1554 1555 1556 1557 1557 1558 1559 1560 1560 1561 1562 1562 1563 1564 1564 1565 1565 1566 1566 1566 1566
1504 1506 1507 1504 1507 1512 1509 1498 1493 1491 1496 1495 1501 1506 1509 1511 1511 1515 1521 1527 1533 1537 1541 1544 1547 1550 1552 1554 1555 1557 1557 1558 1559 1559 1560 1561 1562 1562 1563 1564 1565 1566 1566 1567 1567 1567 1568 1569 1569
1503 1506 1505 1507 1507 1504 1500 1495 1492 1491 1496 1496 1500 1508 1511 1512 1513 1517 1523 1529 1535 1539 1543 1546 1549 1551 1553 1555 1557 1558 1559 1560 1560 1561 1561 1562 1563 1564 1565 1565 1566 1568 1569 1569 1569 1569 1570 1571 1571
1503 1503 1504 1508 1505 1501 1496 1495 1494 1495 1498 1500 1500 1507 1512 1516 1517 1521 1526 1531 1536 1540 1544 1547 1551 1553 1555 1557 1558 1560 1561 1561 1562 1563 1564 1564 1565 1566 1566 1567 1568 1569 1570 1571 1571 1572 1572 1573 1574
1502 1502 1506 1508 1501 1495 1492 1491 1494 1495 1497 1501 1504 1507 1517 1519 1521 1524 1529 1534 1538 1541 1545 1549 1552 1555 1557 1559 1560 1561 1562 1563 1564 1565 1565 1567 1567 1568 1568 1569 1570 1571 1572 1572 1573 1573 1575 1575 1576
1500 1502 1503 1501 1497 1493 1488 1488 1491 1494 1498 1500 1501 1508 1517 1520 1524 1526 1531 1536 1540 1543 1547 1550 1553 1556 1558 1560 1562 1563 1563 1564 1565 1566 1567 1568 1569 1570 1571 1572 1572 1573 1574 1574 1575 1576 1576 1577 1577
1500 1500 1503 1500 1498 1493 1486 1488 1489 1495 1498 1500 1501 1506 1513 1516 1524 1528 1533 1538 1541 1545 1548 1550 1553 1556 1559 1561 1563 1564 1565 1565 1567 1568 1569 1571 1571 1572 1573 1574 1575 1575 1575 1576 1576 1577 1578 1579 1580
1499 1505 1508 1497 1495 1488 1484 1489 1491 1495 1496 1499 1501 1501 1506 1515 1523 1529 1534 1539 1542 1546 1549 1551 1554 1557 1560 1562 1564 1565 1566 1567 1568 1570 1572 1573 1574 1575 1575 1575 1576 1577 1577 1578 1579 1578 1579 1581 1582
1499 1503 1495 1484 1482 1483 1482 1485 1489 1494 1496 1500 1500 1505 1512 1516 1522 1527 1532 1537 1541 1545 1548 1552 1555 1558 1560 1562 1564 1566 1567 1569 1571 1573 1574 1575 1577 1577 1576 1577 1577 1579 1579 1580 1581 1580 1582 1583 1585
1494 1496 1486 1484 1483 1483 1484 1486 1489 1493 1497 1495 1494 1501 1509 1516 1521 1526 1531 1536 1539 1544 1549 1552 1555 1558 1560 1563 1565 1567 1569 1571 1573 1575 1576 1578 1578 1579 1579 1580 1579 1581 1580 1581 1582 1583 1584 1585 1586
1493 1485 1485 1482 1484 1483 1483 1486 1486 1488 1488 1489 1492 1495 1502 1511 1518 1523 1528 1534 1539 1544 1548 1552 1555 1558 1561 1564 1566 1569 1571 1573 1574 1576 1578 1579 1580 1581 1581 1582 1582 1583 1582 1582 1583 1585 1585 1586 1587
1488 1482 1484 1483 1484 1483 1482 1482 1482 1489 1489 1492 1499 1505 1507 1512 1518 1525 1530 1535 1539 1543 1548 1551 1555 1558 1561 1564 1567 1570 1572 1574 1575 1577 1579 1580 1581 1582 1582 1583 1582 1583 1583 1584 1585 1586 1587 1587 1587
1479 1481 1482 1481 1479 1479 1480 1481 1480 1490 1491 1498 1499 1506 1511 1513 1515 1522 1529 1533 1537 1542 1546 1550 1554 1558 1561 1564 1567 1570 1572 1575 1576 1578 1580 1581 1581 1582 1582 1583 1583 1584 1584 1585 1586 1586 1587 1587 1588
1480 1483 1478 1477 1477 1479 1479 1486 1487 1488 1491 1498 1502 1507 1511 1515 1517 1518 1524 1530 1535 1541 1546 1549 1554 1558 1561 1564 1567 1570 1572 1575 1576 1578 1580 1582 1582 1583 1583 1584 1584 1584 1585 1586 1586 1587 1588 1588 1589
1479 1483 1494 1472 1471 1473 1475 1495 1490 1491 1494 1500 1505 1508 1512 1516 1517 1519 1523 1529 1535 1540 1544 1548 1552 1556 1560 1563 1567 1570 1572 1574 1576 1578 1580 1582 1583 1584 1585 1585 1584 1585 1586 1586 1587 1588 1589 1589 1591
1483 1494 1488 1480 1469 1473 1476 1488 1490 1491 1493 1498 1502 1506 1510 1515 1518 1521 1523 1526 1532 1537 1542 1546 1550 1554 1558 1562 1566 1569 1571 1573 1575 1577 1579 1581 1583 1584 1585 1585 1585 1586 1586 1588 1588 1588 1589 1590 1591
1491 1488 1480 1481 1472 1473 1476 1482 1484 1488 1490 1492 1499 1502 1505 1509 1511 1517 1522 1526 1530 1535 1540 1545 1548 1553 1557 1561 1565 1568 1570 1572 1574 1576 1578 1581 1583 1584 1585 1585 1585 1587 1587 1588 1589 1589 1590 1590 1591
1472 1474 1476 1467 1464 1469 1470 1475 1478 1482 1490 1493 1496 1499 1501 1503 1510 1516 1519 1524 1528 1532 1537 1541 1546 1550 1554 1558 1561 1565 1567 1570 1573 1575 1577 1580 1582 1584 1586 1586 1586 1587 1588 1589 1590 1590 1591 1591 1591
1474 1478 1476 1467 1458 1465 1469 1471 1473 1475 1474 1481 1489 1495 1495 1501 1508 1512 1515 1519 1524 1527 1532 1537 1541 1546 1551 1555 1559 1563 1566 1569 1572 1575 1577 1579 1581 1583 1585 1586 1586 1587 1588 1589 1589 1591 1592 1592 1592
1471 1475 1473 1475 1463 1461 1469 1480 1477 1478 1481 1484 1487 1488 1492 1492 1499 1504 1508 1513 1519 1522 1526 1531 1536 1542 1547 1551 1556 1560 1564 1567 1569 1571 1575 1578 1580 1583 1584 1585 1586 1587 1587 1588 1589 1590 1591 1592 1593
1473 1459 1462 1466 1473 1481 1467 1502 1478 1469 1471 1475 1476 1480 1483 1487 1492 1497 1502 1507 1511 1516 1522 1527 1532 1537 1542 1547 1552 1555 1558 1561 1564 1568 1573 1576 1579 1581 1583 1584 1584 1586 1587 1588 1589 1589 1590 1592 1592
1452 1453 1458 1462 1470 1475 1470 1486 1469 1461 1466 1466 1463 1467 1473 1478 1482 1487 1492 1498 1503 1512 1516 1522 1527 1532 1537 1543 1547 1552 1554 1557 1562 1567 1571 1574 1576 1578 1580 1581 1583 1584 1586 1587 1588 1588 1589 1591 1591
1446 1452 1456 1459 1465 1480 1469 1473 1467 1459 1450 1447 1454 1459 1464 1470 1475 1480 1485 1492 1498 1505 1510 1515 1521 1526 1532 1537 1543 1547 1550 1554 1558 1563 1567 1570 1573 1575 1577 1579 1580 1583 1584 1586 1587 1588 1589 1589 1590
1446 1463 1488 1491 1485 1475 1462 1471 1444 1433 1427 1432 1441 1445 1453 1461 1467 1473 1479 1484 1489 1496 1501 1507 1514 1519 1526 1531 1537 1542 1546 1550 1555 1559 1563 1567 1569 1570 1573 1576 1578 1580 1583 1584 1585 1586 1587 1587 1589
1444 1451 1478 1492 1490 1467 1455 1466 1436 1420 1419 1421 1429 1436 1444 1452 1456 1461 1467 1473 1479 1486 1494 1498 1504 1512 1519 1524 1530 1536 1541 1545 1550 1554 1558 1562 1565 1568 1571 1573 1575 1577 1580 1582 1583 1584 1585 1586 1587
1439 1446 1440 1463 1467 1476 1452 1442 1422 1417 1418 1420 1425 1433 1438 1442 1449 1451 1458 1463 1471 1477 1483 1488 1496 1504 1511 1517 1524 1530 1535 1540 1544 1549 1553 1557 1561 1565 1568 1570 1572 1574 1577 1579 1580 1581 1582 1583 1584
1422 1429 1449 1461 1469 1478 1457 1445 1429 1422 1419 1416 1417 1422 1426 1431 1436 1446 1452 1455 1460 1466 1475 1483 1489 1496 1503 1511 1518 1523 1529 1534 1538 1543 1548 1551 1556 1559 1563 1566 1569 1571 1573 1575 1576 1578 1579 1580 1580
1428 1430 1433 1435 1452 1453 1469 1443 1413 1408 1406 1410 1409 1411 1414 1418 1425 1432 1438 1447 1453 1462 1468 1473 1482 1489 1497 1504 1511 1517 1522 1527 1533 1536 1541 1546 1550 1554 1558 1561 1565 1567 1568 1570 1572 1573 1575 1575 1576
1441 1437 1424 1437 1448 1450 1448 1422 1398 1397 1398 1401 1402 1403 1404 1407 1413 1422 1429 1439 1447 1454 1460 1464 1472 1480 1489 1496 1503 1510 1516 1521 1526 1530 1534 1540 1544 1549 1553 1557 1560 1562 1564 1565 1566 1568 1569 1570 1571
Wind_Speed
9 11 5 2 0 1 2 2 3 3 5 11 30 9 9 4 3 3 25 34 32 33 31 28 24 23 21 19 16 16 16 16 15 15 15 15 15 15 14 13 12 12 13 12 9 10 11 12 11
11 11 5 2 1 0 1 2 2 2 3 24 18 11 5 3 4 21 40 34 32 32 31 28 24 22 20 17 16 15 15 15 15 15 16 14 16 15 14 13 13 13 13 12 11 12 14 15 16
12 5 2 1 1 2 1 3 9 10 9 16 7 10 3 4 11 41 37 35 33 32 30 27 24 20 18 16 16 14 14 14 14 14 14 14 15 15 14 13 13 13 13 14 13 12 14 14 15
9 4 3 1 1 2 3 4 8 11 5 6 16 10 5 3 40 28 39 33 33 30 29 26 24 20 16 15 15 13 14 14 15 13 14 15 16 14 14 13 13 13 13 13 13 12 14 14 16
7 2 1 1 0 2 5 6 2 7 3 3 3 5 11 24 24 38 37 33 33 31 28 27 23 19 16 15 15 13 14 14 15 13 12 14 15 14 14 15 15 14 13 12 12 12 12 12 12
3 1 1 1 2 2 6 14 2 7 4 10 15 17 9 12 34 37 35 33 31 30 28 26 22 19 17 16 14 13 14 14 14 13 15 14 16 16 16 16 16 16 15 16 14 11 11 12 11
2 2 1 2 3 4 3 11 9 7 6 6 22 6 13 26 38 36 34 31 30 28 27 25 22 20 17 16 14 13 14 14 15 16 16 17 17 16 16 15 15 14 13 12 13 13 11 11 12
3 1 2 3 2 4 3 5 15 12 4 18 17 8 14 41 36 33 32 29 28 27 26 25 23 20 18 16 14 14 14 15 15 16 16 17 16 16 15 13 13 12 12 11 11 12 12 12 10
4 1 3 3 3 3 2 4 13 6 15 4 7 14 38 46 36 33 31 29 28 27 26 25 22 20 18 16 15 14 14 15 16 15 15 15 15 14 13 12 11 10 9 10 8 11 11 11 10
4 2 5 6 4 2 2 14 14 6 12 5 14 21 48 42 37 37 34 32 31 29 27 25 22 20 18 16 15 15 16 17 17 16 15 15 13 12 11 9 7 8 6 6 8 9 11 10 10
7 5 6 5 6 5 5 5 5 18 4 10 38 48 51 41 38 39 34 33 33 30 27 26 23 20 18 16 16 16 18 17 14 13 12 12 11 9 8 7 8 9 3 4 8 9 9 8 8
4 14 17 8 11 9 4 11 8 20 5 22 35 57 52 45 42 40 37 34 33 31 28 26 23 21 18 16 16 17 17 13 12 11 11 8 9 7 6 5 4 4 4 5 9 10 7 5 5
12 9 11 18 13 13 7 10 9 14 2 22 45 41 43 43 40 37 35 33 32 32 29 26 24 22 20 18 18 18 14 14 10 10 8 3 5 3 6 4 4 6 5 8 8 10 8 6 6
6 16 20 20 13 8 9 3 14 9 21 34 43 40 37 40 43 38 38 36 34 32 30 26 24 22 21 20 20 18 15 14 11 7 7 3 4 2 4 4 4 5 7 6 9 8 8 8 8
18 8 8 9 12 6 13 5 2 22 30 34 37 36 35 35 39 42 41 39 34 32 29 28 25 24 23 21 21 18 14 12 10 5 5 4 3 1 2 3 5 4 9 9 7 6 7 9 6
3 4 2 7 6 9 6 3 9 22 28 29 30 31 34 34 38 40 40 38 34 31 30 29 27 27 26 21 22 17 14 13 13 12 6 5 4 3 2 5 3 4 6 5 4 8 7 5 4
2 4 7 3 11 5 5 4 12 23 26 28 30 31 33 31 33 36 39 38 35 33 29 31 30 29 28 23 23 18 13 14 15 14 10 6 3 2 2 3 2 3 4 4 5 6 5 4 2
5 4 4 6 9 9 12 4 16 28 28 30 31 32 34 36 40 40 41 38 36 34 32 32 32 29 26 25 23 20 16 16 17 13 11 8 5 2 3 3 3 5 6 5 5 5 4 2 3
2 4 5 4 7 15 18 12 20 29 25 26 31 32 34 38 40 39 39 42 39 35 36 36 35 32 30 28 26 26 24 21 17 15 13 11 10 7 4 7 6 8 7 6 5 6 4 4 2
7 8 7 5 4 6 14 16 16 20 31 35 34 34 36 35 36 40 44 45 43 41 40 39 39 36 34 31 29 27 28 27 23 19 16 15 14 11 9 7 12 9 10 9 6 8 7 6 6
11 14 10 4 4 8 10 7 10 14 19 25 32 37 35 40 40 42 47 48 50 44 44 43 40 38 40 36 32 32 29 30 30 27 22 17 15 14 12 7 10 12 11 10 9 6 8 7 7
12 11 15 9 6 6 7 5 7 20 20 19 31 39 39 40 40 44 46 47 54 52 50 46 44 41 40 41 36 33 29 37 36 32 27 22 19 17 14 10 9 13 12 12 9 6 9 9 12
11 6 10 5 7 6 8 2 6 12 19 22 26 36 41 44 46 48 51 53 51 54 52 52 48 45 41 45 41 35 30 31 36 35 29 28 23 20 17 14 10 12 13 10 10 10 8 13 14
4 5 5 2 4 10 10 10 6 7 18 23 28 35 38 42 44 49 50 49 51 51 52 54 52 50 46 46 45 39 32 31 31 32 32 27 27 26 21 17 15 12 13 13 11 11 11 14 16
12 5 4 3 6 10 9 8 18 11 20 24 23 37 41 40 43 44 47 50 52 54 54 53 56 53 51 48 48 42 36 31 31 29 29 29 26 26 24 20 18 18 13 13 13 15 14 14 15
12 13 6 6 4 9 7 7 11 13 20 31 39 40 42 45 46 48 48 51 53 53 55 57 55 55 54 50 51 45 39 33 32 30 28 30 28 25 21 21 19 19 18 14 15 15 18 17 16
8 15 10 2 1 2 3 6 10 7 10 15 26 27 36 40 46 49 49 50 51 52 57 57 56 56 55 52 51 48 41 36 35 33 29 30 28 25 23 21 21 19 18 18 16 17 17 19 18
16 6 5 1 15 10 4 4 8 9 10 10 12 28 35 42 46 42 48 50 53 55 57 56 56 54 55 54 53 49 43 37 35 34 33 32 30 27 27 25 23 22 20 20 20 19 18 19 21
1 12 4 6 6 12 4 7 6 9 11 14 14 29 36 42 45 47 54 50 53 50 54 56 57 56 56 53 52 52 46 41 37 36 35 33 31 30 29 27 25 23 21 21 24 24 23 22 21
9 7 11 8 9 4 3 16 6 10 9 9 15 30 41 42 45 47 52 51 49 49 51 56 56 57 57 54 52 51 47 44 41 39 37 35 35 33 31 31 28 27 25 23 22 24 28 27 25
Wind_Direction
148 148 153 197 333 222 255 119 286 199 166 164 159 175 172 50 157 190 146 156 157 154 151 151 146 142 142 138 135 129 125 125 123 121 116 115 123 128 127 123 123 116 113 113 104 97 92 97 112
156 163 176 247 235 341 284 308 233 221 31 127 127 107 76 99 163 142 149 158 157 156 155 155 149 144 136 134 130 125 125 124 124 122 120 119 120 121 120 121 119 115 108 104 109 102 100 99 103
158 166 233 234 147 220 162 222 263 250 171 144 117 91 80 119 151 142 154 155 157 157 157 157 154 145 136 135 130 126 124 121 122 120 121 120 119 119 118 121 118 113 107 103 107 105 109 103 105
163 204 249 222 298 167 275 335 332 139 153 80 116 91 87 201 142 150 151 156 157 157 156 158 157 150 143 137 131 127 121 122 112 117 119 118 118 117 116 115 118 115 108 108 107 107 114 108 101
175 231 293 228 85 227 250 267 284 210 57 103 141 100 108 134 151 150 153 157 159 157 158 158 158 155 148 141 136 129 123 122 126 121 116 114 115 116 113 112 113 112 107 105 110 112 117 125 111
168 109 22 112 257 232 209 234 206 235 123 130 99 113 125 152 153 153 156 157 159 157 158 158 159 159 151 146 140 132 125 126 126 120 119 115 112 109 110 111 110 108 103 98 103 114 120 128 116
274 155 234 163 271 275 239 184 200 188 167 135 132 99 130 153 157 157 158 159 158 158 160 160 160 159 154 147 143 135 131 128 127 126 122 119 115 113 112 111 108 107 103 102 98 103 115 130 131
245 88 205 243 235 293 108 153 203 183 166 144 147 161 158 162 159 158 159 163 163 164 165 163 162 160 156 150 146 139 137 132 129 127 124 122 119 113 114 114 105 102 101 99 105 105 111 133 131
244 179 226 232 196 224 229 129 142 152 146 147 172 167 160 158 158 157 161 166 168 167 168 167 165 161 160 154 148 145 142 138 134 129 130 133 130 123 119 115 107 103 107 111 117 114 118 132 126
199 223 215 233 205 249 317 143 144 127 157 72 109 150 154 156 162 162 168 171 174 172 172 171 168 166 163 157 153 152 149 145 135 131 134 139 137 135 133 124 123 112 102 115 115 112 110 123 133
200 219 229 259 244 208 182 131 135 140 203 193 145 147 156 161 168 169 175 178 178 176 175 173 172 170 165 160 159 156 149 145 143 136 141 141 136 140 134 118 110 108 88 128 135 127 120 113 124
244 226 250 274 271 183 219 168 163 175 237 196 171 158 160 166 172 175 179 181 181 181 179 175 176 173 166 165 161 158 150 146 149 151 144 148 147 145 144 126 125 118 103 142 143 146 146 112 104
232 252 260 258 251 220 181 214 185 186 224 171 157 161 164 166 174 182 185 184 183 185 181 179 179 176 171 167 163 157 153 156 150 147 152 149 165 162 194 135 106 135 116 126 151 164 157 144 109
204 234 253 266 221 180 167 114 133 147 156 155 162 169 172 171 177 181 186 185 186 185 184 183 182 178 176 169 163 157 156 153 156 146 145 102 194 195 164 139 131 121 145 127 152 155 152 146 125
261 297 313 261 223 132 115 44 111 155 158 163 170 175 179 179 180 186 186 187 185 188 186 188 186 180 172 169 169 173 170 176 183 185 163 148 133 236 187 176 172 125 136 136 130 151 139 149 146
165 134 259 271 232 164 110 208 157 155 156 164 173 179 183 189 189 191 192 190 190 187 192 192 190 188 181 176 178 182 189 193 191 202 202 195 227 250 272 163 176 150 135 123 121 127 141 144 137
316 192 197 240 189 142 174 152 174 166 166 172 182 184 186 191 195 197 198 194 192 193 193 192 191 191 193 186 187 194 200 198 190 195 200 204 254 276 247 182 217 180 188 166 137 125 125 148 242
194 196 215 190 204 182 191 195 165 182 181 182 187 189 190 196 199 197 201 204 197 198 201 197 194 196 194 192 195 201 210 207 202 207 202 206 233 241 221 239 256 204 191 190 176 177 182 202 194
207 225 228 227 207 189 204 184 179 184 190 190 196 197 197 204 203 201 202 207 207 205 208 204 202 203 203 200 199 204 212 212 205 208 206 221 236 237 235 228 223 200 191 211 198 210 189 193 206
248 267 268 321 226 129 206 221 188 183 194 192 195 203 202 204 205 206 207 206 208 209 209 210 210 211 211 210 210 213 213 217 220 220 214 220 230 233 239 257 231 224 228 228 232 226 215 223 225
213 220 237 162 202 220 169 246 202 198 207 203 211 208 207 200 205 205 211 213 206 213 212 214 214 219 219 217 216 220 223 224 222 221 222 218 224 228 231 252 227 226 229 222 225 218 213 219 192
228 190 231 223 192 210 155 242 219 209 208 202 215 205 208 206 208 209 210 214 211 215 216 217 218 221 221 219 218 222 226 222 223 225 226 224 227 227 226 238 234 233 224 221 229 232 224 219 208
243 168 222 197 201 174 219 195 251 199 224 213 210 207 207 206 205 210 212 215 215 215 219 221 221 222 222 220 219 222 227 229 228 228 228 226 227 230 230 232 242 242 234 235 222 237 228 212 209
256 214 235 155 201 242 218 208 247 183 215 219 210 208 206 206 208 211 214 213 214 217 219 223 223 224 224 223 222 224 230 232 229 228 225 222 227 230 230 228 239 246 238 230 229 235 233 219 219
208 122 245 258 202 230 188 205 232 213 216 213 207 210 208 205 208 209 210 214 217 215 216 221 223 224 225 226 223 227 231 236 232 228 223 218 216 221 226 227 233 240 241 235 235 234 230 228 228
208 202 193 194 187 237 189 210 232 208 228 216 211 219 211 209 207 209 211 212 217 219 216 221 222 224 225 226 225 229 232 237 235 231 229 223 220 222 221 224 234 241 245 243 239 241 233 235 236
210 212 199 145 201 340 205 250 276 216 232 219 217 203 204 208 211 211 210 213 212 216 219 221 224 224 225 225 227 229 233 237 236 234 230 228 227 224 225 225 234 242 247 246 243 243 243 237 240
220 171 175 211 229 240 279 244 220 189 218 217 207 205 204 207 210 206 207 210 217 222 221 223 224 224 225 226 227 230 234 237 237 235 233 231 230 228 229 227 231 239 243 243 244 247 249 246 244
337 220 238 168 169 225 250 250 220 216 193 201 210 212 213 208 206 203 208 208 215 215 217 222 222 223 224 226 228 229 233 236 237 237 235 234 233 230 227 228 229 231 237 244 247 250 251 253 253
256 278 205 204 219 246 224 244 265 221 219 196 211 221 227 217 208 203 207 203 205 210 217 225 224 224 224 227 230 231 235 237 238 238 237 235 234 232 230 230 233 232 234 237 244 252 251 251 255